Location: Strada George Coșbuc
(47.6577°N, 23.5639°E)
Time: 22:14:29
(UTC+03:00)

ISS - Pass Details

Date: 06 September 2017
Orbit: 401 x 407 km, 51.6° (Epoch: 25 September)

Event Time Altitude Azimuth Distance (km) Brightness Sun altitude
Exits shadow 06:06:40 11° 249° (WSW) 1,409 -1.8 -8.0°
Maximum altitude 06:09:49 82° 335° (NNW) 417 -3.8 -7.5°
Drops below altitude 10° 06:13:08 10° 66° (ENE) 1,475 0.8 -7.0°
Sets 06:15:14 0° 67° (ENE) 2,338 2.5 -6.7°
